| time (UTC) | temp F | wind direction | speed MPH | gust MPH | rain 1hr in | rain 24hr in | rain mn in | humidity % | barometer mb |
| 20260510215404 | 58 | 184 | 0.0 | 1.0 | 0.00 | 0.31 | 0.31 | 95 | 1013.2 |
| 20260510214904 | 58 | 215 | 0.0 | 1.0 | 0.00 | 0.31 | 0.31 | 95 | 1013.2 |
| 20260510214404 | 58 | 113 | 0.0 | 0.0 | 0.00 | 0.31 | 0.31 | 95 | 1013.5 |
| 20260510213403 | 58 | 105 | 0.0 | 0.0 | 0.00 | 0.31 | 0.31 | 95 | 1013.2 |
| 20260510212904 | 58 | 146 | 0.0 | 0.0 | 0.00 | 0.31 | 0.31 | 95 | 1013.5 |
| 20260510212404 | 58 | 166 | 0.0 | 0.0 | 0.00 | 0.31 | 0.31 | 95 | 1013.5 |
| 20260510211904 | 58 | 72 | 0.0 | 1.0 | 0.00 | 0.31 | 0.31 | 95 | 1013.5 |
| 20260510211406 | 58 | 91 | 0.0 | 1.0 | 0.00 | 0.31 | 0.31 | 95 | 1013.5 |
| 20260510210905 | 58 | 114 | 0.0 | 1.0 | 0.00 | 0.31 | 0.31 | 94 | 1013.5 |
| 20260510210404 | 58 | 201 | 0.0 | 1.0 | 0.00 | 0.31 | 0.31 | 94 | 1013.9 |
| 20260510205906 | 58 | 211 | 0.0 | 1.0 | 0.00 | 0.31 | 0.31 | 94 | 1013.9 |
| 20260510205403 | 58 | 138 | 0.0 | 1.0 | 0.00 | 0.31 | 0.31 | 94 | 1013.5 |
| 20260510204905 | 58 | 246 | 0.0 | 1.0 | 0.00 | 0.31 | 0.31 | 94 | 1013.9 |
| 20260510204404 | 58 | 133 | 0.0 | 1.0 | 0.00 | 0.31 | 0.31 | 94 | 1013.5 |
| 20260510203904 | 58 | 68 | 1.0 | 1.0 | 0.00 | 0.31 | 0.31 | 94 | 1013.7 |
| 20260510203403 | 58 | 197 | 0.0 | 1.0 | 0.00 | 0.31 | 0.31 | 94 | 1013.8 |
| 20260510202904 | 58 | 115 | 0.0 | 1.0 | 0.00 | 0.31 | 0.31 | 94 | 1013.5 |
| 20260510202405 | 58 | 207 | 0.0 | 1.0 | 0.00 | 0.31 | 0.31 | 94 | 1013.6 |
| 20260510201905 | 58 | 95 | 0.0 | 1.0 | 0.00 | 0.31 | 0.31 | 94 | 1013.6 |
| 20260510201404 | 58 | 143 | 0.0 | 2.0 | 0.00 | 0.31 | 0.31 | 94 | 1013.7 |
| 20260510200906 | 58 | 324 | 0.0 | 2.0 | 0.00 | 0.31 | 0.31 | 94 | 1013.9 |
| 20260510200406 | 58 | 142 | 0.0 | 0.0 | 0.00 | 0.31 | 0.31 | 95 | 1013.9 |
| 20260510195904 | 58 | 142 | 0.0 | 0.0 | 0.00 | 0.31 | 0.31 | 95 | 1013.6 |
| 20260510195404 | 58 | 174 | 0.0 | 0.0 | 0.00 | 0.31 | 0.31 | 95 | 1013.9 |
| 20260510194904 | 58 | 117 | 0.0 | 1.0 | 0.00 | 0.31 | 0.31 | 95 | 1013.9 |
| 20260510194404 | 58 | 242 | 0.0 | 1.0 | 0.00 | 0.31 | 0.31 | 95 | 1013.9 |
| 20260510193405 | 58 | 141 | 0.0 | 0.0 | 0.00 | 0.31 | 0.31 | 95 | 1013.7 |
| 20260510192903 | 58 | 142 | 0.0 | 0.0 | 0.00 | 0.31 | 0.31 | 95 | 1013.9 |
| 20260510192405 | 58 | 125 | 0.0 | 0.0 | 0.00 | 0.31 | 0.31 | 95 | 1014.0 |
| 20260510191904 | 58 | 195 | 0.0 | 0.0 | 0.00 | 0.31 | 0.31 | 94 | 1014.2 |
| 20260510190904 | 58 | 170 | 0.0 | 0.0 | 0.00 | 0.31 | 0.31 | 94 | 1013.9 |
| 20260510190403 | 58 | 165 | 0.0 | 0.0 | 0.00 | 0.31 | 0.31 | 94 | 1013.6 |
| 20260510185904 | 58 | 90 | 0.0 | 1.0 | 0.00 | 0.31 | 0.31 | 94 | 1013.5 |
| 20260510185404 | 58 | 100 | 0.0 | 1.0 | 0.00 | 0.31 | 0.31 | 94 | 1013.5 |
| 20260510184903 | 58 | 117 | 0.0 | 1.0 | 0.00 | 0.31 | 0.31 | 94 | 1013.5 |
| 20260510184404 | 58 | 169 | 0.0 | 1.0 | 0.00 | 0.31 | 0.31 | 94 | 1013.5 |
| 20260510183904 | 58 | 198 | 0.0 | 1.0 | 0.00 | 0.31 | 0.31 | 94 | 1013.5 |
| 20260510183405 | 59 | 204 | 0.0 | 1.0 | 0.00 | 0.31 | 0.31 | 94 | 1013.5 |
| 20260510182903 | 59 | 175 | 0.0 | 1.0 | 0.00 | 0.31 | 0.31 | 94 | 1013.5 |
| 20260510181903 | 59 | 184 | 0.0 | 1.0 | 0.00 | 0.31 | 0.31 | 94 | 1013.5 |
| 20260510181404 | 59 | 88 | 0.0 | 1.0 | 0.00 | 0.31 | 0.31 | 94 | 1013.2 |
| 20260510180904 | 59 | 189 | 0.0 | 1.0 | 0.00 | 0.31 | 0.31 | 93 | 1013.5 |
| 20260510175903 | 59 | 75 | 1.0 | 2.0 | 0.00 | 0.31 | 0.31 | 93 | 1013.5 |
| 20260510175404 | 59 | 231 | 0.0 | 2.0 | 0.00 | 0.31 | 0.31 | 93 | 1013.5 |
| 20260510174404 | 59 | 141 | 0.0 | 1.0 | 0.00 | 0.31 | 0.31 | 94 | 1013.5 |
| 20260510173905 | 59 | 173 | 0.0 | 1.0 | 0.00 | 0.31 | 0.31 | 94 | 1013.5 |
| 20260510173404 | 59 | 31 | 0.0 | 2.0 | 0.00 | 0.31 | 0.31 | 94 | 1013.5 |
| 20260510172905 | 59 | 72 | 0.0 | 2.0 | 0.00 | 0.31 | 0.31 | 94 | 1013.7 |
| 20260510172404 | 59 | 162 | 0.0 | 1.0 | 0.00 | 0.31 | 0.31 | 94 | 1013.7 |
| 20260510171904 | 59 | 190 | 0.0 | 1.0 | 0.00 | 0.31 | 0.31 | 94 | 1013.5 |
| 20260510170905 | 59 | 176 | 0.0 | 0.0 | 0.01 | 0.31 | 0.31 | 94 | 1013.5 |
| 20260510165905 | 59 | 153 | 0.0 | 1.0 | 0.01 | 0.31 | 0.31 | 94 | 1013.5 |
| 20260510165404 | 59 | 192 | 0.0 | 1.0 | 0.01 | 0.31 | 0.31 | 94 | 1013.5 |
| 20260510164904 | 59 | 234 | 0.0 | 1.0 | 0.01 | 0.31 | 0.31 | 94 | 1013.5 |
| 20260510164404 | 59 | 134 | 0.0 | 1.0 | 0.01 | 0.31 | 0.31 | 94 | 1013.8 |
| 20260510163904 | 59 | 117 | 0.0 | 1.0 | 0.01 | 0.31 | 0.31 | 94 | 1013.9 |
| 20260510163405 | 59 | 107 | 0.0 | 1.0 | 0.01 | 0.31 | 0.31 | 94 | 1014.0 |
| 20260510162905 | 59 | 137 | 0.0 | 1.0 | 0.01 | 0.31 | 0.31 | 94 | 1013.9 |
| 20260510161906 | 59 | 218 | 0.0 | 1.0 | 0.01 | 0.31 | 0.31 | 94 | 1013.9 |
| 20260510161404 | 59 | 146 | 0.0 | 1.0 | 0.01 | 0.31 | 0.31 | 93 | 1013.9 |
| 20260510160903 | 59 | 141 | 0.0 | 0.0 | 0.00 | 0.30 | 0.30 | 93 | 1013.9 |
| 20260510155405 | 60 | 172 | 0.0 | 1.0 | 0.00 | 0.30 | 0.30 | 93 | 1013.9 |
| 20260510154903 | 60 | 182 | 0.0 | 1.0 | 0.00 | 0.30 | 0.30 | 92 | 1014.2 |
| 20260510154405 | 60 | 230 | 0.0 | 1.0 | 0.00 | 0.30 | 0.30 | 92 | 1013.9 |
| 20260510153904 | 60 | 147 | 0.0 | 1.0 | 0.00 | 0.30 | 0.30 | 92 | 1013.9 |
| 20260510153404 | 60 | 129 | 0.0 | 2.0 | 0.00 | 0.30 | 0.30 | 91 | 1013.9 |
| 20260510152906 | 60 | 82 | 0.0 | 2.0 | 0.00 | 0.30 | 0.30 | 91 | 1014.0 |
| 20260510152404 | 60 | 214 | 0.0 | 1.0 | 0.00 | 0.30 | 0.30 | 92 | 1013.9 |
| 20260510151405 | 61 | 149 | 0.0 | 1.0 | 0.00 | 0.30 | 0.30 | 91 | 1014.2 |
| 20260510150905 | 61 | 184 | 0.0 | 2.0 | 0.00 | 0.30 | 0.30 | 91 | 1014.2 |
| 20260510150404 | 61 | 123 | 0.0 | 2.0 | 0.00 | 0.30 | 0.30 | 90 | 1014.2 |
| 20260510145906 | 60 | 126 | 0.0 | 2.0 | 0.00 | 0.30 | 0.30 | 90 | 1014.2 |
| 20260510144405 | 61 | 188 | 0.0 | 2.0 | 0.00 | 0.30 | 0.30 | 91 | 1014.0 |
| 20260510142905 | 61 | 121 | 0.0 | 1.0 | 0.00 | 0.30 | 0.30 | 92 | 1014.2 |
| 20260510142423 | 61 | 111 | 0.0 | 1.0 | 0.01 | 0.30 | 0.30 | 92 | 1014.2 |
| 20260510141905 | 61 | 65 | 1.0 | 1.0 | 0.01 | 0.30 | 0.30 | 92 | 1014.2 |
| 20260510141405 | 61 | 138 | 0.0 | 2.0 | 0.01 | 0.30 | 0.30 | 91 | 1014.4 |
| 20260510140904 | 61 | 71 | 1.0 | 2.0 | 0.01 | 0.30 | 0.30 | 91 | 1014.2 |
| 20260510140404 | 62 | 77 | 1.0 | 2.0 | 0.01 | 0.30 | 0.30 | 91 | 1014.2 |
| 20260510134907 | 61 | 65 | 1.0 | 1.0 | 0.01 | 0.30 | 0.30 | 91 | 1014.3 |
| 20260510134405 | 61 | 64 | 1.0 | 2.0 | 0.02 | 0.30 | 0.30 | 90 | 1014.6 |
| 20260510133404 | 62 | 55 | 1.0 | 2.0 | 0.03 | 0.30 | 0.30 | 91 | 1014.8 |
| 20260510132906 | 62 | 62 | 0.0 | 1.0 | 0.03 | 0.30 | 0.30 | 91 | 1014.9 |
| 20260510132410 | 62 | 58 | 0.0 | 1.0 | 0.02 | 0.29 | 0.29 | 91 | 1014.8 |
| 20260510131905 | 62 | 19 | 0.0 | 1.0 | 0.02 | 0.29 | 0.29 | 90 | 1014.9 |
| 20260510131404 | 62 | 41 | 0.0 | 1.0 | 0.02 | 0.29 | 0.29 | 90 | 1014.9 |
| 20260510130904 | 61 | 48 | 0.0 | 1.0 | 0.02 | 0.29 | 0.29 | 90 | 1014.9 |
| 20260510130405 | 61 | 73 | 1.0 | 1.0 | 0.02 | 0.29 | 0.29 | 89 | 1015.2 |
| 20260510125404 | 61 | 46 | 0.0 | 2.0 | 0.02 | 0.29 | 0.29 | 90 | 1015.0 |
| 20260510124906 | 61 | 72 | 0.0 | 2.0 | 0.02 | 0.29 | 0.29 | 90 | 1014.9 |
| 20260510124404 | 61 | 166 | 0.0 | 2.0 | 0.01 | 0.28 | 0.28 | 90 | 1015.2 |
| 20260510123907 | 61 | 77 | 0.0 | 1.0 | 0.02 | 0.28 | 0.28 | 90 | 1015.2 |
| 20260510123403 | 61 | 105 | 0.0 | 1.0 | 0.01 | 0.27 | 0.27 | 91 | 1015.2 |
| 20260510122904 | 61 | 174 | 0.0 | 0.0 | 0.02 | 0.27 | 0.27 | 91 | 1015.2 |
| 20260510121404 | 61 | 76 | 1.0 | 1.0 | 0.04 | 0.27 | 0.27 | 90 | 1015.2 |
| 20260510120903 | 60 | 218 | 0.0 | 2.0 | 0.04 | 0.27 | 0.27 | 90 | 1015.2 |
| 20260510120406 | 60 | 94 | 0.0 | 2.0 | 0.04 | 0.27 | 0.27 | 90 | 1015.2 |
| 20260510115904 | 60 | 68 | 0.0 | 2.0 | 0.05 | 0.27 | 0.27 | 90 | 1015.2 |
| 20260510115404 | 60 | 73 | 1.0 | 1.0 | 0.05 | 0.27 | 0.27 | 89 | 1015.2 |
| 20260510114904 | 60 | 119 | 0.0 | 2.0 | 0.06 | 0.27 | 0.27 | 90 | 1015.2 |
| 20260510113905 | 61 | 217 | 0.0 | 2.0 | 0.06 | 0.26 | 0.26 | 89 | 1015.3 |
| 20260510113404 | 61 | 62 | 0.0 | 2.0 | 0.06 | 0.26 | 0.26 | 90 | 1015.4 |
| 20260510112904 | 61 | 71 | 0.0 | 2.0 | 0.05 | 0.25 | 0.25 | 90 | 1015.6 |
| 20260510112404 | 61 | 69 | 1.0 | 2.0 | 0.05 | 0.24 | 0.24 | 88 | 1015.6 |
| 20260510111904 | 61 | 45 | 0.0 | 1.0 | 0.04 | 0.23 | 0.23 | 88 | 1015.6 |
| 20260510111407 | 61 | 165 | 0.0 | 1.0 | 0.04 | 0.23 | 0.23 | 89 | 1015.6 |
| 20260510110904 | 61 | 70 | 0.0 | 1.0 | 0.04 | 0.23 | 0.23 | 90 | 1015.6 |
| 20260510110405 | 61 | 38 | 1.0 | 1.0 | 0.04 | 0.23 | 0.23 | 89 | 1015.3 |
| 20260510105904 | 61 | 69 | 1.0 | 1.0 | 0.03 | 0.22 | 0.22 | 88 | 1015.3 |
| 20260510105404 | 62 | 64 | 0.0 | 1.0 | 0.03 | 0.22 | 0.22 | 87 | 1015.2 |
| 20260510104905 | 62 | 51 | 0.0 | 1.0 | 0.02 | 0.21 | 0.21 | 87 | 1015.6 |
| 20260510104405 | 62 | 49 | 0.0 | 1.0 | 0.02 | 0.21 | 0.21 | 85 | 1015.6 |
| 20260510103904 | 62 | 63 | 0.0 | 1.0 | 0.01 | 0.20 | 0.20 | 85 | 1015.6 |
| 20260510103404 | 62 | 64 | 0.0 | 1.0 | 0.01 | 0.20 | 0.20 | 85 | 1015.6 |
| 20260510102906 | 62 | 67 | 0.0 | 1.0 | 0.01 | 0.20 | 0.20 | 85 | 1015.6 |
| 20260510102404 | 62 | 58 | 0.0 | 1.0 | 0.00 | 0.19 | 0.19 | 86 | 1015.6 |
| 20260510101904 | 62 | 77 | 0.0 | 1.0 | 0.00 | 0.19 | 0.19 | 85 | 1015.6 |
| 20260510101404 | 62 | 57 | 1.0 | 1.0 | 0.01 | 0.19 | 0.19 | 82 | 1015.6 |
| 20260510100404 | 61 | 66 | 0.0 | 2.0 | 0.01 | 0.19 | 0.19 | 84 | 1015.6 |
| 20260510095904 | 61 | 66 | 1.0 | 2.0 | 0.05 | 0.19 | 0.19 | 83 | 1015.6 |
| 20260510094904 | 62 | 51 | 0.0 | 1.0 | 0.19 | 0.19 | 0.19 | 85 | 1015.6 |
| 20260510094404 | 61 | 57 | 0.0 | 2.0 | 0.19 | 0.19 | 0.19 | 86 | 1015.6 |
| 20260510093904 | 60 | 254 | 1.0 | 2.0 | 0.19 | 0.19 | 0.19 | 86 | 1015.7 |
| 20260510093406 | 60 | 233 | 0.0 | 2.0 | 0.19 | 0.19 | 0.19 | 88 | 1015.9 |
| 20260510092405 | 60 | 250 | 1.0 | 7.0 | 0.19 | 0.19 | 0.19 | 85 | 1015.9 |
| 20260510091404 | 59 | 255 | 3.0 | 5.0 | 0.18 | 0.18 | 0.18 | 86 | 1016.3 |
| 20260510090904 | 58 | 223 | 2.0 | 3.0 | 0.18 | 0.18 | 0.18 | 88 | 1016.3 |
| 20260510090404 | 59 | 186 | 2.0 | 3.0 | 0.18 | 0.18 | 0.18 | 88 | 1016.3 |
| 20260510085905 | 60 | 243 | 1.0 | 2.0 | 0.14 | 0.14 | 0.14 | 86 | 1016.3 |
| 20260510085404 | 63 | 231 | 0.0 | 1.0 | 0.08 | 0.08 | 0.08 | 81 | 1015.9 |
| 20260510084904 | 64 | 67 | 0.0 | 1.0 | 0.00 | 0.00 | 0.00 | 68 | 1015.9 |
| 20260510084404 | 64 | 49 | 0.0 | 1.0 | 0.00 | 0.00 | 0.00 | 66 | 1015.7 |
| 20260510083904 | 64 | 35 | 0.0 | 1.0 | 0.00 | 0.00 | 0.00 | 65 | 1015.4 |
| 20260510082905 | 64 | 50 | 0.0 | 1.0 | 0.00 | 0.00 | 0.00 | 65 | 1015.2 |
| 20260510082404 | 64 | 60 | 0.0 | 1.0 | 0.00 | 0.00 | 0.00 | 65 | 1015.2 |
| 20260510081906 | 64 | 70 | 0.0 | 2.0 | 0.00 | 0.00 | 0.00 | 65 | 1015.2 |
| 20260510081404 | 64 | 266 | 0.0 | 2.0 | 0.00 | 0.00 | 0.00 | 65 | 1015.5 |
| 20260510080905 | 64 | 49 | 1.0 | 1.0 | 0.00 | 0.00 | 0.00 | 65 | 1015.2 |
| 20260510080406 | 64 | 51 | 0.0 | 1.0 | 0.00 | 0.00 | 0.00 | 65 | 1015.2 |
| 20260510075904 | 64 | 55 | 0.0 | 2.0 | 0.00 | 0.00 | 0.00 | 65 | 1015.2 |
| 20260510075404 | 64 | 100 | 0.0 | 2.0 | 0.00 | 0.00 | 0.00 | 66 | 1015.3 |
| 20260510074904 | 64 | 66 | 1.0 | 3.0 | 0.00 | 0.00 | 0.00 | 65 | 1015.2 |
| 20260510073905 | 63 | 81 | 0.0 | 3.0 | 0.00 | 0.00 | 0.00 | 66 | 1015.2 |
| 20260510072904 | 62 | 165 | 0.0 | 5.0 | 0.00 | 0.00 | 0.00 | 67 | 1015.2 |
| 20260510072404 | 62 | 46 | 2.0 | 5.0 | 0.00 | 0.00 | 0.00 | 68 | 1015.2 |
| 20260510071904 | 62 | 70 | 2.0 | 5.0 | 0.00 | 0.00 | 0.00 | 68 | 1015.5 |
| 20260510071404 | 62 | 77 | 3.0 | 5.0 | 0.00 | 0.00 | 0.00 | 68 | 1015.2 |
| 20260510070905 | 62 | 52 | 3.0 | 5.0 | 0.00 | 0.00 | 0.00 | 68 | 1015.5 |
| 20260510070405 | 62 | 3 | 1.0 | 2.0 | 0.00 | 0.00 | 0.00 | 68 | 1015.2 |
| 20260510065904 | 62 | 58 | 1.0 | 2.0 | 0.00 | 0.00 | 0.00 | 68 | 1015.3 |
| 20260510065405 | 62 | 91 | 0.0 | 2.0 | 0.00 | 0.00 | 0.00 | 69 | 1015.2 |
| 20260510064904 | 62 | 63 | 1.0 | 2.0 | 0.00 | 0.00 | 0.00 | 69 | 1015.6 |
| 20260510064404 | 61 | 93 | 0.0 | 3.0 | 0.00 | 0.00 | 0.00 | 70 | 1015.6 |
| 20260510063904 | 61 | 81 | 0.0 | 5.0 | 0.00 | 0.00 | 0.00 | 71 | 1015.8 |
| 20260510063404 | 61 | 56 | 1.0 | 5.0 | 0.00 | 0.00 | 0.00 | 71 | 1015.6 |
| 20260510062404 | 61 | 37 | 1.0 | 5.0 | 0.00 | 0.00 | 0.00 | 71 | 1015.6 |
| 20260510061904 | 61 | 66 | 1.0 | 5.0 | 0.00 | 0.00 | 0.00 | 71 | 1015.8 |
| 20260510061405 | 61 | 44 | 0.0 | 3.0 | 0.00 | 0.00 | 0.00 | 71 | 1015.9 |
| 20260510060904 | 61 | 53 | 1.0 | 3.0 | 0.00 | 0.00 | 0.00 | 70 | 1015.9 |
| 20260510060405 | 61 | 71 | 0.0 | 3.0 | 0.00 | 0.00 | 0.00 | 71 | 1015.9 |
| 20260510055905 | 60 | 22 | 0.0 | 3.0 | 0.00 | 0.00 | 0.00 | 72 | 1015.9 |
| 20260510055405 | 60 | 178 | 0.0 | 3.0 | 0.00 | 0.00 | 0.00 | 72 | 1015.9 |
| 20260510054904 | 60 | 224 | 1.0 | 3.0 | 0.00 | 0.00 | 0.00 | 73 | 1015.9 |
| 20260510054405 | 60 | 114 | 0.0 | 5.0 | 0.00 | 0.00 | 0.00 | 74 | 1015.9 |
| 20260510053904 | 59 | 66 | 1.0 | 7.0 | 0.00 | 0.00 | 0.00 | 75 | 1015.9 |
| 20260510053405 | 59 | 66 | 1.0 | 7.0 | 0.00 | 0.00 | 0.00 | 74 | 1015.9 |
| 20260510052904 | 59 | 176 | 1.0 | 5.0 | 0.00 | 0.00 | 0.00 | 74 | 1015.9 |
| 20260510052405 | 59 | 102 | 1.0 | 5.0 | 0.00 | 0.00 | 0.00 | 75 | 1016.0 |
| 20260510051904 | 59 | 57 | 0.0 | 5.0 | 0.00 | 0.00 | 0.00 | 75 | 1015.9 |
| 20260510050904 | 59 | 60 | 1.0 | 5.0 | 0.00 | 0.00 | 0.00 | 76 | 1015.9 |
| 20260510050404 | 59 | 73 | 1.0 | 5.0 | 0.00 | 0.00 | 0.00 | 77 | 1015.9 |
| 20260510045904 | 59 | 65 | 1.0 | 3.0 | 0.00 | 0.00 | 0.00 | 76 | 1015.9 |
| 20260510045404 | 58 | 92 | 0.0 | 3.0 | 0.00 | 0.00 | 0.00 | 77 | 1015.9 |
| 20260510044905 | 58 | 120 | 1.0 | 5.0 | 0.00 | 0.00 | 0.00 | 77 | 1015.9 |
| 20260510044404 | 58 | 94 | 1.0 | 5.0 | 0.00 | 0.00 | 0.00 | 77 | 1016.3 |
| 20260510043904 | 58 | 81 | 1.0 | 3.0 | 0.00 | 0.00 | 0.00 | 77 | 1016.2 |
| 20260510042905 | 58 | 131 | 0.0 | 2.0 | 0.00 | 0.00 | 0.00 | 77 | 1016.3 |
| 20260510041904 | 58 | 132 | 0.0 | 3.0 | 0.00 | 0.00 | 0.00 | 77 | 1016.3 |
| 20260510041405 | 58 | 119 | 1.0 | 3.0 | 0.00 | 0.00 | 0.00 | 77 | 1016.3 |
| 20260510040905 | 58 | 97 | 0.0 | 5.0 | 0.00 | 0.00 | 0.00 | 77 | 1016.3 |
| 20260510040404 | 58 | 90 | 1.0 | 5.0 | 0.00 | 0.00 | 0.00 | 77 | 1016.3 |
| 20260510035906 | 58 | 61 | 2.0 | 3.0 | 0.00 | 0.00 | 0.00 | 78 | 1016.6 |
| 20260510035404 | 58 | 69 | 1.0 | 1.0 | 0.00 | 0.00 | 0.00 | 78 | 1016.5 |
| 20260510034905 | 58 | 62 | 0.0 | 1.0 | 0.00 | 0.00 | 0.00 | 79 | 1016.3 |
| 20260510034404 | 58 | 211 | 0.0 | 3.0 | 0.00 | 0.00 | 0.00 | 77 | 1016.4 |
| 20260510033905 | 58 | 308 | 0.0 | 3.0 | 0.00 | 0.00 | 0.00 | 77 | 1016.4 |
| 20260510033404 | 58 | 51 | 1.0 | 7.0 | 0.00 | 0.00 | 0.00 | 77 | 1016.4 |
| 20260510032906 | 58 | 78 | 1.0 | 7.0 | 0.00 | 0.00 | 0.00 | 76 | 1016.6 |
| 20260510032404 | 58 | 67 | 2.0 | 7.0 | 0.00 | 0.00 | 0.00 | 76 | 1016.6 |
| 20260510031904 | 59 | 77 | 0.0 | 3.0 | 0.00 | 0.00 | 0.00 | 76 | 1016.6 |
| 20260510031404 | 59 | 77 | 1.0 | 3.0 | 0.00 | 0.00 | 0.00 | 75 | 1016.6 |
| 20260510030904 | 59 | 75 | 1.0 | 2.0 | 0.00 | 0.00 | 0.00 | 75 | 1016.6 |
| 20260510030404 | 59 | 176 | 0.0 | 1.0 | 0.00 | 0.00 | 0.00 | 75 | 1016.6 |
| 20260510025906 | 59 | 154 | 0.0 | 3.0 | 0.00 | 0.00 | 0.00 | 76 | 1016.7 |
| 20260510025404 | 59 | 82 | 1.0 | 3.0 | 0.00 | 0.00 | 0.00 | 76 | 1016.8 |
| 20260510024905 | 59 | 52 | 1.0 | 3.0 | 0.00 | 0.00 | 0.00 | 75 | 1016.9 |
| 20260510024406 | 59 | 104 | 0.0 | 2.0 | 0.00 | 0.00 | 0.00 | 76 | 1016.7 |
| 20260510023404 | 59 | 111 | 1.0 | 1.0 | 0.00 | 0.00 | 0.00 | 76 | 1016.9 |
| 20260510022905 | 59 | 71 | 0.0 | 3.0 | 0.00 | 0.00 | 0.00 | 76 | 1017.0 |
| 20260510022404 | 59 | 233 | 0.0 | 3.0 | 0.00 | 0.00 | 0.00 | 75 | 1017.3 |
| 20260510021904 | 59 | 253 | 2.0 | 3.0 | 0.00 | 0.00 | 0.00 | 75 | 1017.1 |
| 20260510021405 | 59 | 256 | 1.0 | 1.0 | 0.00 | 0.00 | 0.00 | 76 | 1017.3 |
| 20260510020906 | 58 | 82 | 0.0 | 1.0 | 0.00 | 0.00 | 0.00 | 76 | 1017.3 |
| 20260510020404 | 58 | 72 | 1.0 | 1.0 | 0.00 | 0.00 | 0.00 | 78 | 1017.3 |
| 20260510015904 | 57 | 71 | 0.0 | 1.0 | 0.00 | 0.00 | 0.00 | 80 | 1017.3 |
| 20260510015406 | 57 | 234 | 0.0 | 1.0 | 0.00 | 0.00 | 0.00 | 79 | 1017.2 |
| 20260510014904 | 57 | 253 | 1.0 | 1.0 | 0.00 | 0.00 | 0.00 | 79 | 1017.0 |
| 20260510014404 | 58 | 83 | 0.0 | 1.0 | 0.00 | 0.00 | 0.00 | 78 | 1016.9 |
| 20260510013905 | 58 | 220 | 1.0 | 1.0 | 0.00 | 0.00 | 0.00 | 78 | 1017.3 |
| 20260510013405 | 58 | 252 | 0.0 | 1.0 | 0.00 | 0.00 | 0.00 | 78 | 1017.3 |
| 20260510012905 | 58 | 234 | 1.0 | 1.0 | 0.00 | 0.00 | 0.00 | 79 | 1017.3 |
| 20260510010406 | 58 | 118 | 0.0 | 1.0 | 0.00 | 0.00 | 0.00 | 78 | 1017.3 |
| 20260510004405 | 59 | 149 | 0.0 | 1.0 | 0.00 | 0.00 | 0.00 | 75 | 1017.3 |
| 20260510003405 | 59 | 73 | 0.0 | 0.0 | 0.00 | 0.00 | 0.00 | 77 | 1017.3 |
| 20260510002905 | 59 | 64 | 0.0 | 1.0 | 0.00 | 0.00 | 0.00 | 77 | 1017.3 |
| 20260510002404 | 59 | 64 | 0.0 | 1.0 | 0.00 | 0.00 | 0.00 | 76 | 1017.3 |
| 20260510001905 | 59 | 67 | 0.0 | 1.0 | 0.00 | 0.00 | 0.00 | 76 | 1017.3 |
| 20260510001404 | 59 | 183 | 0.0 | 1.0 | 0.00 | 0.00 | 0.00 | 75 | 1017.3 |
| 20260510000905 | 59 | 142 | 0.0 | 1.0 | 0.00 | 0.00 | 0.00 | 76 | 1017.4 |
| 20260510000404 | 59 | 217 | 0.0 | 1.0 | 0.00 | 0.00 | 0.00 | 76 | 1017.3 |
| 20260509235905 | 59 | 71 | 0.0 | 1.0 | 0.00 | 0.00 | 0.00 | 76 | 1017.5 |
| 20260509235405 | 59 | 241 | 0.0 | 1.0 | 0.00 | 0.00 | 0.00 | 75 | 1017.3 |
| 20260509233904 | 60 | 61 | 0.0 | 1.0 | 0.00 | 0.00 | 0.00 | 75 | 1017.3 |
| 20260509233404 | 60 | 55 | 0.0 | 0.0 | 0.00 | 0.00 | 0.00 | 73 | 1017.3 |
| 20260509232904 | 61 | 42 | 0.0 | 0.0 | 0.00 | 0.00 | 0.00 | 73 | 1017.3 |
| 20260509232405 | 61 | 300 | 0.0 | 2.0 | 0.00 | 0.00 | 0.00 | 72 | 1017.3 |
| 20260509231905 | 62 | 44 | 0.0 | 2.0 | 0.00 | 0.00 | 0.00 | 70 | 1017.6 |
| 20260509231404 | 61 | 62 | 2.0 | 2.0 | 0.00 | 0.00 | 0.00 | 69 | 1017.3 |
| 20260509230405 | 60 | 229 | 0.0 | 1.0 | 0.00 | 0.00 | 0.00 | 74 | 1017.6 |
| 20260509225937 | 60 | 248 | 0.0 | 1.0 | 0.00 | 0.00 | 0.00 | 74 | 1017.3 |
| 20260509224937 | 61 | 69 | 0.0 | 1.0 | 0.00 | 0.00 | 0.00 | 71 | 1017.5 |
| 20260509224438 | 61 | 132 | 0.0 | 0.0 | 0.00 | 0.00 | 0.00 | 73 | 1017.3 |
| 20260509223937 | 61 | 214 | 0.0 | 1.0 | 0.00 | 0.00 | 0.00 | 73 | 1017.6 |
| 20260509223437 | 61 | 179 | 0.0 | 1.0 | 0.00 | 0.00 | 0.00 | 72 | 1017.3 |
| 20260509222936 | 61 | 252 | 1.0 | 1.0 | 0.00 | 0.00 | 0.00 | 71 | 1017.3 |
| 20260509221936 | 62 | 252 | 0.0 | 1.0 | 0.00 | 0.00 | 0.00 | 71 | 1017.3 |
| 20260509220939 | 62 | 124 | 0.0 | 1.0 | 0.00 | 0.00 | 0.00 | 69 | 1017.3 |